Date String (YYYY-MM-DD hh:mm:ss) UTC,Instrument flags,Ambient pressure (hPa),Sample flow (lpm),Bypass flow (lpm),Sample temperature (°C),Ambient temperature (°C),ASC tube jacket temperature (°C),LED temperature (°C),Box temperature (°C),Sample RH (%),Span deviation,Mass concentration (μg/m³),Mass concentration (μg/m³),Mass concentration (μg/m³)
DateTimeUTC,F1_M11,P_M11,Q1_M11,Q2_M11,T1_M11,T2_M11,T3_M11,T4_M11,T5_M11,U1_M11,ZSPAN_M11,X0_M11,X2_M11,X1_M11
2022-06-22 08:00:00,,0833.6,5.01,0.00,29.9,28.8,00.0,38.7,31.7,14.0,0000.0,0009.14,0003.58,0002.26
2022-06-22 08:01:00,,0833.6,5.00,0.00,29.9,28.8,00.0,38.7,31.7,14.0,0000.0,0009.07,0003.57,0002.27
2022-06-22 08:02:00,,0833.5,5.00,0.00,29.9,28.8,00.0,38.7,31.7,14.0,0000.0,0008.98,0003.55,0002.27
2022-06-22 08:03:00,,0833.4,5.00,0.00,29.9,28.8,00.0,38.7,31.7,14.0,0000.0,0009.03,0003.54,0002.27
2022-06-22 08:04:00,,0833.5,5.00,0.00,29.9,28.8,00.0,38.7,31.7,14.0,0000.0,0008.69,0003.48,0002.25
2022-06-22 08:05:00,,0833.5,4.99,0.00,29.9,28.8,00.0,38.7,31.7,14.0,0000.0,0008.69,0003.42,0002.23
2022-06-22 08:06:00,,0833.4,5.01,0.00,29.9,28.8,00.0,38.7,31.7,14.0,0000.0,0008.67,0003.36,0002.20
2022-06-22 08:07:00,,0833.5,4.99,0.00,29.9,28.8,00.0,38.8,31.8,14.0,0000.0,0008.64,0003.31,0002.16
2022-06-22 08:08:00,,0833.5,4.99,0.00,29.9,28.8,00.0,38.8,31.8,13.9,0000.0,0008.34,0003.30,0002.13
2022-06-22 08:09:00,,0833.5,5.00,0.00,29.9,28.9,00.0,38.8,31.7,13.9,0000.0,0007.79,0003.29,0002.12
2022-06-22 08:10:00,,0833.5,4.99,0.00,29.9,28.9,00.0,38.8,31.8,13.9,0000.0,0007.62,0003.32,0002.11
2022-06-22 08:11:00,,0833.5,5.00,0.00,29.9,28.9,00.0,38.8,31.8,13.9,0000.0,0007.96,0003.33,0002.11
2022-06-22 08:12:00,,0833.5,5.00,0.00,30.0,28.9,00.0,38.8,31.8,13.9,0000.0,0008.82,0003.34,0002.09
2022-06-22 08:13:00,,0833.5,5.01,0.00,30.0,28.9,00.0,38.8,31.8,13.8,0000.0,0009.33,0003.36,0002.07
2022-06-22 08:14:00,,0833.4,5.00,0.00,30.0,28.9,00.0,38.8,31.8,13.8,0000.0,0009.21,0003.36,0002.06
2022-06-22 08:15:00,,0833.5,4.99,0.00,30.0,28.9,00.0,38.8,31.8,13.8,0000.0,0009.26,0003.39,0002.07
2022-06-22 08:16:00,,0833.5,5.01,0.00,30.0,28.9,00.0,38.8,31.8,13.8,0000.0,0009.04,0003.41,0002.07
2022-06-22 08:17:00,,0833.5,5.00,0.00,30.0,28.9,00.0,38.8,31.8,13.8,0000.0,0009.06,0003.44,0002.08
2022-06-22 08:18:00,,0833.5,4.99,0.00,30.0,28.9,00.0,38.8,31.9,13.8,0000.0,0009.07,0003.47,0002.09
2022-06-22 08:19:00,,0833.5,5.00,0.00,30.0,29.0,00.0,38.8,31.9,13.7,0000.0,0009.09,0003.48,0002.09
2022-06-22 08:20:00,,0833.5,5.00,0.00,30.0,29.0,00.0,38.8,31.9,13.7,0000.0,0009.45,0003.50,0002.09
2022-06-22 08:21:00,,0833.5,5.01,0.00,30.0,29.0,00.0,38.8,31.9,13.6,0000.0,0009.61,0003.46,0002.09
2022-06-22 08:22:00,,0833.5,5.00,0.00,30.0,29.0,00.0,38.9,31.9,13.6,0000.0,0009.59,0003.43,0002.08
2022-06-22 08:23:00,,0833.5,5.01,0.00,30.0,29.0,00.0,38.9,31.9,13.6,0000.0,0009.34,0003.41,0002.08
2022-06-22 08:24:00,,0833.5,4.99,0.00,30.0,29.0,00.0,38.9,31.9,13.6,0000.0,0008.61,0003.42,0002.08
2022-06-22 08:25:00,,0833.5,5.01,0.00,30.0,29.0,00.0,38.9,31.9,13.5,0000.0,0008.71,0003.45,0002.09
2022-06-22 08:26:00,,0833.5,5.01,0.00,30.0,29.0,00.0,38.9,31.9,13.5,0000.0,0008.61,0003.40,0002.08
2022-06-22 08:27:00,,0833.5,4.99,0.00,30.0,29.0,00.0,38.9,31.9,13.4,0000.0,0008.57,0003.38,0002.08
2022-06-22 08:28:00,,0833.5,5.00,0.00,30.1,29.0,00.0,38.9,31.9,13.4,0000.0,0008.58,0003.36,0002.07
2022-06-22 08:29:00,,0833.4,5.00,0.00,30.1,29.0,00.0,38.9,31.9,13.3,0000.0,0008.63,0003.34,0002.07
2022-06-22 08:30:00,,0833.5,5.01,0.00,30.1,29.1,00.0,38.9,31.9,13.2,0000.0,0008.63,0003.35,0002.07
2022-06-22 08:31:00,,0833.5,5.00,0.00,30.1,29.1,00.0,38.9,31.9,13.2,0000.0,0008.32,0003.35,0002.09
2022-06-22 08:32:00,,0833.4,5.00,0.00,30.1,29.1,00.0,38.9,31.9,13.1,0000.0,0008.12,0003.36,0002.10
2022-06-22 08:33:00,,0833.5,4.99,0.00,30.1,29.1,00.0,38.9,31.9,13.1,0000.0,0007.82,0003.38,0002.11
2022-06-22 08:34:00,,0833.5,5.01,0.00,30.1,29.1,00.0,38.9,31.9,13.0,0000.0,0007.80,0003.40,0002.11
2022-06-22 08:35:00,,0833.5,5.00,0.00,30.1,29.1,00.0,38.9,32.0,13.0,0000.0,0007.66,0003.41,0002.14
2022-06-22 08:36:00,,0833.5,5.00,0.00,30.1,29.1,00.0,38.9,32.0,13.0,0000.0,0007.59,0003.41,0002.16
2022-06-22 08:37:00,,0833.5,4.98,0.00,30.1,29.2,00.0,38.9,32.0,13.0,0000.0,0007.64,0003.44,0002.18
2022-06-22 08:38:00,,0833.5,5.01,0.00,30.1,29.2,00.0,39.0,32.0,12.9,0000.0,0007.65,0003.44,0002.19
2022-06-22 08:39:00,,0833.6,5.00,0.00,30.1,29.2,00.0,39.0,32.0,12.9,0000.0,0007.66,0003.47,0002.22
2022-06-22 08:40:00,,0833.6,4.99,0.00,30.2,29.2,00.0,39.0,32.0,12.9,0000.0,0007.91,0003.46,0002.24
2022-06-22 08:41:00,,0833.6,5.00,0.00,30.2,29.2,00.0,39.0,32.0,12.9,0000.0,0008.16,0003.46,0002.26
2022-06-22 08:42:00,,0833.6,5.01,0.00,30.2,29.2,00.0,39.0,32.0,12.9,0000.0,0008.45,0003.48,0002.27
2022-06-22 08:43:00,,0833.6,5.00,0.00,30.2,29.2,00.0,39.0,32.0,12.8,0000.0,0008.48,0003.49,0002.27
2022-06-22 08:44:00,,0833.6,5.00,0.00,30.2,29.2,00.0,39.0,32.0,12.9,0000.0,0008.67,0003.55,0002.28
2022-06-22 08:45:00,,0833.6,5.00,0.00,30.2,29.2,00.0,39.0,32.0,13.0,0000.0,0008.34,0003.52,0002.30
2022-06-22 08:46:00,,0833.6,5.00,0.00,30.2,29.2,00.0,39.0,32.0,13.1,0000.0,0008.07,0003.46,0002.31
2022-06-22 08:47:00,,0833.6,5.01,0.00,30.2,29.2,00.0,39.0,32.0,13.1,0000.0,0008.02,0003.46,0002.31
2022-06-22 08:48:00,,0833.6,5.00,0.00,30.2,29.2,00.0,39.0,32.1,13.1,0000.0,0008.47,0003.47,0002.31
2022-06-22 08:49:00,,0833.6,4.99,0.00,30.2,29.2,00.0,39.0,32.0,13.1,0000.0,0008.73,0003.48,0002.32
2022-06-22 08:50:00,,0833.6,5.00,0.00,30.2,29.2,00.0,39.1,32.1,13.1,0000.0,0008.80,0003.47,0002.32
2022-06-22 08:51:00,,0833.5,5.00,0.00,30.2,29.2,00.0,39.1,32.1,13.0,0000.0,0008.38,0003.48,0002.31
2022-06-22 08:52:00,,0833.5,5.01,0.00,30.2,29.2,00.0,39.1,32.0,13.1,0000.0,0008.14,0003.46,0002.30
2022-06-22 08:53:00,,0833.6,4.98,0.00,30.2,29.2,00.0,39.1,32.0,13.2,0000.0,0007.96,0003.46,0002.31
2022-06-22 08:54:00,,0833.5,5.01,0.00,30.2,29.2,00.0,39.1,32.1,13.2,0000.0,0007.89,0003.43,0002.32
2022-06-22 08:55:00,,0833.6,5.00,0.00,30.2,29.2,00.0,39.1,32.0,13.2,0000.0,0007.77,0003.37,0002.31
2022-06-22 08:56:00,,0833.6,5.00,0.00,30.3,29.2,00.0,39.1,32.1,13.1,0000.0,0007.88,0003.41,0002.31
2022-06-22 08:57:00,,0833.6,5.00,0.00,30.3,29.2,00.0,39.1,32.1,13.1,0000.0,0008.11,0003.44,0002.30
2022-06-22 08:58:00,,0833.6,5.00,0.00,30.3,29.2,00.0,39.1,32.1,13.1,0000.0,0008.57,0003.44,0002.30
2022-06-22 08:59:00,,0833.6,4.99,0.00,30.3,29.2,00.0,39.1,32.1,13.1,0000.0,0008.05,0003.42,0002.29
